Regional Weather Roundup
Issued by NWS

Home | Current Version | Previous Version | Text Only | Print | Product List | Glossary On
Versions: 1 2 3 4 5 6 7 8 9 10 11 12 13 14 15 16 17 18 19 20 21 22 23 24 25 26 27 28 29 30 31 32 33 34 35 36 37 38 39 40 41 42 43 44 45 46 47 48 49 50
000
ASUS46 KSEW 191910
RWRWA

WASHINGTON REGIONAL WEATHER ROUNDUP
NATIONAL WEATHER SERVICE SEATTLE WA
1100 AM PST SUN FEB 19 2017

NOTE:"FAIR" INDICATES FEW OR NO CLOUDS BELOW 12,000 FEET WITH NO
SIGNIFICANT WEATHER AND/OR OBSTRUCTIONS TO VISIBILITY.

WAZ507-509-555>559-192000-
SEATTLE, TACOMA, EVERETT, AND VICINITY

CITY           SKY/WX    TMP DP  RH WIND       PRES   REMARKS
EVERETT        CLOUDY    45  39  79 SE12G21   29.45R
BOEING FIELD   LGT RAIN  47  42  83 S9        29.47R
RENTON         CLOUDY    47  42  83 SE6       29.47R
SEATAC AIRPORT LGT RAIN  45  40  82 S8        29.46R
JBLM-MCCHORD   LGT RAIN  45  45  99 S10       29.47R
PUYALLUP       DRIZZLE   45  41  87 VRB6      29.47R
BREMERTON      CLOUDY    43  41  93 S10       29.49R
JBLM-FT LEWIS  LGT RAIN  43  43 100 SE12      29.46R
TACOMA NARROWS CLOUDY    44  40  85 S12       29.47R
$$

WAZ001-503-506-510-514-515-192000-
NORTH INTERIOR

CITY           SKY/WX    TMP DP  RH WIND       PRES   REMARKS
BELLINGHAM     PTSUNNY   48  42  80 SE16G22   29.43R
FRIDAY HARBOR  CLOUDY    46  39  76 SE24G35   29.40S
EASTSOUND      CLOUDY    46  39  76 S7        29.39S
PORT ANGELES   PTSUNNY   45  41  86 CALM      29.38R
EDIZ HOOK      MOCLDY    45  40  82 CALM      29.39R
PORT TOWNSEND  PTSUNNY   45  41  87 SE10G24   29.44R
NAS WHIDBEY    PTSUNNY   48  37  65 SE25G35   29.45R
ARLINGTON      CLOUDY    46  36  66 SE12      29.48R
BURLINGTON     PTSUNNY   48  39  71 SE10G21   29.44S
$$

WAZ020-022-039-040-504-511-512-192000-
SOUTHWEST INTERIOR

CITY           SKY/WX    TMP DP  RH WIND       PRES   REMARKS
SHELTON        LGT RAIN  43  39  86 SE9       29.43R
OLYMPIA        LGT RAIN  42  40  92 S14G25    29.46R
CHEHALIS       LGT RAIN  43  43 100 S14G20    29.48R
KELSO          CLOUDY    46  42  86 SE15      29.51R
VANCOUVER      CLOUDY    46  42  86 VRB7G18   29.53R
SCAPPOOSE, OR  LGT RAIN  45  42  89 SE9       29.52R
PORTLAND, OR   CLOUDY    47  41  80 S14G20    29.54R
$$

WAZ021-516-517-192000-
WASHINGTON COAST

CITY           SKY/WX    TMP DP  RH WIND       PRES   REMARKS
FORKS          LGT RAIN  41  40  96 SE9G21    29.34R
HOQUIAM        LGT RAIN  43  41  93 E18       29.40R FOG
ASTORIA, OR    LGT RAIN  42  38  85 SE8       29.44R FOG
$$

WAZ019-023-024-040-567>569-192000-
CASCADE MOUNTAINS AND COLUMBIA GORGE

CITY           SKY/WX    TMP DP  RH WIND       PRES   REMARKS
STAMPEDE PASS  NOT AVBL
TROUTDALE, OR  LGT RAIN  45  40  82 NE6       29.55R
THE DALLES, OR CLOUDY    42  38  85 CALM      29.57R
$$

WAZ026-027-041>044-520-521-192000-
EAST SLOPES

CITY           SKY/WX    TMP DP  RH WIND       PRES   REMARKS
OMAK           CLOUDY    37  32  82 S5        29.53S
WENATCHEE      CLOUDY    34  33  96 SE3       29.52R
ELLENSBURG     CLOUDY    39  33  79 E5        29.50R
YAKIMA         CLOUDY    38  35  89 VRB3      29.54R
SUNNYSIDE ARPT MOCLDY    37  35  94 E6        29.54R
$$

WAZ028-034-035-192000-
COLUMBIA BASIN

CITY           SKY/WX    TMP DP  RH WIND       PRES   REMARKS
EPHRATA        CLOUDY    34  30  85 CALM      29.53R FOG
MOSES LAKE     CLOUDY    36  34  92 N3        29.55R
PASCO          CLOUDY    38  36  92 NE3       29.58R FOG
HERMISTON, OR  FOG       37  37 100 CALM      29.57R VSB 1/2
$$

WAZ036>038-192000-
NORTHEAST WASHINGTON

CITY           SKY/WX    TMP DP  RH WIND       PRES   REMARKS
SPOKANE GEIGER CLOUDY    34  33  96 SE3       29.53R FOG
SPOKANE FELTS  MOSUNNY   39  34  82 E8        29.55R
FAIRCHILD AFB  CLOUDY    33  33 100 SE5       29.52R
COEURDALENE,ID CLOUDY    40  36  86 S3        29.55R
DEER PARK      CLOUDY    34  33  96 S3        29.55R
$$

WAZ029>033-192000-
SOUTHEAST WASHINGTON

CITY           SKY/WX    TMP DP  RH WIND       PRES   REMARKS
PULLMAN        PTSUNNY   42  36  79 SE13      29.55R
LEWISTON, ID   PTSUNNY   46  39  76 E5        29.56R
WALLA WALLA    LGT RAIN  43  39  86 SW12      29.58R FOG
PENDLETON, OR  MOSUNNY   46  39  76 SW7       29.54R
$$



USA.gov is the U.S. government's official web portal to all federal, state and local government web resources and services.